Regional Weather Roundup
Issued by NWS Sterling, VA

Home | Current Version | Previous Version | Text Only | Print | Product List | Glossary Off
Versions: 1 2 3 4 5 6 7 8 9 10 11 12 13 14 15 16 17 18 19 20 21 22 23 24 25 26 27 28 29 30 31 32 33 34 35 36 37 38 39 40 41 42 43 44 45 46 47 48 49 50

000
ASUS41 KLWX 020010
RWRLWX

REGIONAL WEATHER ROUNDUP
NATIONAL WEATHER SERVICE BALTIMORE MD/WASHINGTON DC
800 PM EDT TUE SEP 01 2015

Note: "FAIR" indicates few or no clouds below 12,000 feet
with no significant weather and/or obstructions to visibility.
 TC=TEMPERATURE CELSIUS

 * =Non NWS site. Station does not report precipitation (e.g. rain,
    snow, etc.), thunder, or fog.

DCZ001-MDZ009-015-VAZ040>042-051-053>054-020100-
WASHINGTON METRO

CITY           SKY/WX    TMP DP  RH WIND       PRES   REMARKS
WASHINGTON NAT MOCLDY    85  70  60 S7        30.01S
DULLES         MOCLDY    83  66  56 CALM      30.02S
ANDREWS AFB    PTCLDY    82  69  66 S3        30.01S
FT BELVOIR     PTCLDY    79  74  84 CALM      30.01S
QUANTICO       MOCLDY    84  72  67 SW3       30.02S
COLLEGE PARK*  PTCLDY    82  70  65 CALM      30.01S
LEESBURG*      MOCLDY    81  73  78 W5        30.04R
MANASSAS*      CLEAR     79  72  78 CALM      30.02S
GAITHERSBURG*  PTCLDY    79  68  69 CALM      30.06S

$$

MDZ006>007-011-014-020100-
BALTIMORE METRO

CITY           SKY/WX    TMP DP  RH WIND       PRES   REMARKS
BWI AIRPORT    MOCLDY    83  70  64 CALM      30.01S
MD SCIENCE CTR   N/A     86  69  56 MISG      30.02R HX  90
MARTIN STATE   PTCLDY    81  75  83 CALM      30.02S
ANNAPOLIS      MOCLDY    82  74  76 CALM      30.01R
FORT MEADE*    MOCLDY    77  72  83 CALM      30.04R

$$

MDZ012-015-019>023-020100-
MARYLAND EASTERN SHORE

CITY           SKY/WX    TMP DP  RH WIND       PRES   REMARKS
OCEAN CITY     PTCLDY    77  70  79 CALM      30.02S
SALISBURY      MOCLDY    76  74  93 CALM      30.02S
BAY BRIDGE AP*   N/A     81  72  74 CALM      30.02R
CAMBRIDGE*     PTCLDY    79  68  69 S3        30.02R
EASTON*        PTCLDY    84  73  70 SW3       30.05S HX  91

$$

MDZ017>025-020100-
SOUTHERN MARYLAND

CITY           SKY/WX    TMP DP  RH WIND       PRES   REMARKS
PATUXENT RIVER MOCLDY    80  68  66 S5        30.01S
ST INIGOES     CLEAR     76  71  85 SE3       30.01S
LEONARDTOWN*   NOT AVBL

$$

MDZ003>005-020100-
NORTH CENTRAL MARYLAND

CITY           SKY/WX    TMP DP  RH WIND       PRES   REMARKS
FREDERICK*     NOT AVBL
HAGERSTOWN APT PTCLDY    85  62  46 E7        30.04R
WESTMINSTER*   PTCLDY    81  61  50 CALM      30.06R

$$

MDZ501>502-020100-
WESTERN MARYLAND

CITY           SKY/WX    TMP DP  RH WIND       PRES   REMARKS
OAKLAND*       PTCLDY    72  61  68 NW3       30.20R
CUMBERLAND*    MOCLDY    84  63  48 NW3       30.09R

$$

VAZ025>031-020100-
SHENANDOAH VALLEY

CITY           SKY/WX    TMP DP  RH WIND       PRES   REMARKS
WINCHESTER*    MOCLDY    82  68  61 CALM      30.05R
FRONT ROYAL*   FAIR      82  68  61 S5        30.04R
LURAY*         FAIR      81  64  57 SW7       30.06S
NEW MARKET*    FAIR      76  67  73 CALM      30.05R
STAUNTON*      MOCLDY    82  66  57 SW3       30.11R
WAYNESBORO*    CLOUDY    80  70  72 S3        30.11S

$$

WVZ021-048>050-054>055-020100-
EASTERN WEST VIRGINIA PANHANDLE

CITY           SKY/WX    TMP DP  RH WIND       PRES   REMARKS
MARTINSBURG    PTCLDY    82  65  56 CALM      30.04R
PETERSBURG*    CLOUDY    77  69  75 CALM      30.09R

$$

VAZ036>039-050-020100-
CENTRAL FOOTHILLS

CITY           SKY/WX    TMP DP  RH WIND       PRES   REMARKS
CHARLOTTESVILL MOCLDY    83  67  58 CALM      30.05S
CULPEPER*      PTCLDY    75  71  88 CALM      30.04R
ORANGE*        PTCLDY    79  72  78 CALM      30.06R
GORDONSVILLE*  CLOUDY    78  73  83 CALM      30.04R
WARRENTON*     FAIR      77  71  81 CALM      30.03R

$$

VAZ055>057-020100-
NORTH AND CENTRAL PIEDMONT

CITY           SKY/WX    TMP DP  RH WIND       PRES   REMARKS
FREDERICKSBRG* CLEAR     83  72  70 CALM      30.01S
STAFFORD*      PTCLDY    77  72  85 CALM      30.06S

$$

NCZ024-NYZ072-PAZ021-071-VAZ022-071-020100-
OTHER REGIONAL OBSERVATIONS

CITY           SKY/WX    TMP DP  RH WIND       PRES   REMARKS
NEW YORK CITY  CLEAR     79  63  57 VRB3      30.05R
PHILADELPHIA   PTCLDY    83  70  64 E9        30.01R
PITTSBURGH     MOCLDY    82  68  62 W3        30.08R
ROANOKE        MOCLDY    82  66  58 N7        30.12R
RICHMOND       MOCLDY    83  69  62 S3        30.03S
RALEIGH        MOCLDY    81  70  69 CALM      30.05S

$$

ANZ530>537-020100-
MARINE OBSERVATIONS

STATION/POSITION TIME  TEMP    WIND        PRES
                       AIR SEA DIR/SP/G
                 (UTC) (F)     (DEG/KT/KT) (MB)
THOMAS PT LIGHT  NOT AVBL
BALT KEY BRIDGE  2300   84     150/  4/  5 1016.0R
COVE POINT       2300   81     210/  6/  7 1017.0S
LEWISETTA        2300   84 81  160/  2/  3 1016.1R
SOLOMONS ISLAND  2300      81                N/A
PINEY POINT      2305          180/  6/  6   N/A

$$



USA.gov is the U.S. government's official web portal to all federal, state and local government web resources and services.